Regional Weather Roundup
Issued by NWS

Home | Current Version | Previous Version | Text Only | Print | Product List | Glossary Off
Versions: 1 2 3 4 5 6 7 8 9 10 11 12 13 14 15 16 17 18 19 20 21 22 23 24 25 26 27 28 29 30 31 32 33 34 35 36 37 38 39 40 41 42 43 44 45 46 47 48 49 50

000
ASUS43 KLOT 290310
RWRIL

ILLINOIS REGIONAL WEATHER ROUNDUP
NATIONAL WEATHER SERVICE CHICAGO/ROMEOVILLE IL
900 PM CST SUN DEC 28 2014

NOTE: "FAIR" INDICATES FEW OR NO CLOUDS BELOW 12,000 FEET WITH NO
SIGNIFICANT WEATHER AND/OR OBSTRUCTIONS TO VISIBILITY.

* THESE STATIONS ARE NOT UNDER NWS QUALITY CONTROL. THEY ALSO MAY NOT
  REPORT WEATHER SUCH AS PRECIPITATION OR FOG.

ILZ001-002-007-009-015-016-024-290400-
NORTHWEST ILLINOIS

CITY           SKY/WX    TMP DP  RH WIND       PRES   REMARKS
MOLINE         PTCLDY    24  18  77 CALM      30.23R
STERLING*      CLEAR     21  16  79 CALM      30.24R
SAVANNA*       PTCLDY    21  17  85 CALM      30.24R
$$

ILZ003-004-008-010-011-017-018-290400-
NORTH CENTRAL ILLINOIS

CITY           SKY/WX    TMP DP  RH WIND       PRES   REMARKS
ROCKFORD       PTCLDY    23  17  78 S3        30.25R
FREEPORT*      PTCLDY    24  17  76 CALM      30.25R
ROCHELLE*      CLEAR     24  19  80 NW3       30.24R
DE KALB*       CLEAR     22  17  79 W6        30.23R WCI  15
PERU*          CLEAR     27  19  72 CALM      30.24R
$$

ILZ005-006-012>014-019>023-290400-
NORTHEAST ILLINOIS

CITY           SKY/WX    TMP DP  RH WIND       PRES   REMARKS
CHICAGO-OHARE  PTCLDY    25  17  72 W6        30.22R WCI  18
CHICAGO-MIDWAY PTCLDY    27  17  66 W7        30.23R WCI  19
AURORA         CLEAR     22  17  81 NW5       30.23R WCI  16
LANSING*       CLEAR     25  19  77 CALM      30.23S
JOLIET*        FAIR      19  15  83 CALM      30.24R
WAUKEGAN       CLEAR     22  17  81 N5        30.22R WCI  16
DUPAGE AIRPORT CLEAR     24  17  74 CALM      30.22R
KANKAKEE*      CLEAR     23  21  91 SW3       30.24R
WHEELING       CLEAR     24  18  77 CALM      30.24R
MORRIS*        CLEAR     24  19  84 CALM      30.23S
ROMEOVILLE*    CLEAR     25  17  72 W3        30.23S
NORTHERLY ISL    N/A     31  19  61 W7          N/A  WCI  24
$$

LMZ740>746-290400-
SOUTHERN LAKE MICHIGAN

STATION/POSITION SKY/WX   TEMP    WIND        PRES    VSBY  WAVE
                          AIR SEA DIR/SP/G                  HT/PER
                          (F)     (DEG/KT/KT) (MB)    (MI)  (FT/S)
WAUKEGAN HARBOR            29        CALM       N/A
HARRISON CRIB              31     270/  9/ 10   N/A
BURNHAM HARBOR             31     260/  5/  7   N/A
CALUMET HARBOR             29     230/  4/  6 1022.3R
MICHIGAN CITY              29     180/  6/  7   N/A
$$

ILZ025>027-034>036-040-047-049-050-058-095>099-290400-
WEST-CENTRAL ILLINOIS

CITY           SKY/WX    TMP DP  RH WIND       PRES   REMARKS
QUINCY         MOCLDY    29  22  75 SE3       30.21S
GALESBURG*     PTCLDY    22  19  90 CALM      30.22S
MACOMB*        CLEAR     25  22  90 S3        30.25R
JACKSONVILLE*  PTCLDY    26  23  87 CALM      30.23S
PITTSFIELD*    FAIR      29  27  93 CALM      30.23S
$$

ILZ028>032-037-038-041>044-048-051>054-059>061-290400-
CENTRAL ILLINOIS

CITY           SKY/WX    TMP DP  RH WIND       PRES   REMARKS
PONTIAC        PTCLDY    24  20  87 CALM      30.24S
BLOOMINGTON    PTCLDY    25  23  91 CALM      30.23S
DECATUR        CLEAR     25  22  88 CALM      30.23S
PEORIA         PTCLDY    25  17  72 CALM      30.24R
LACON*         PTCLDY    22  17  83 CALM      30.24R
LINCOLN*       PTCLDY    27  25  89 CALM      30.25R
SPRINGFIELD    PTCLDY    26  21  81 CALM      30.23F
TAYLORVILLE    CLEAR     27  25  93 CALM      30.23F FOG
$$

ILZ033-039-045-046-055>057-062-063-290400-
EAST-CENTRAL ILLINOIS

CITY           SKY/WX    TMP DP  RH WIND       PRES   REMARKS
CHAMPAIGN      CLEAR     25  20  81 CALM      30.23R
DANVILLE*      CLEAR     23  22  97 CALM      30.21R FOG
RANTOUL*       CLEAR     24  21  87 CALM      30.22S
MATTOON        CLEAR     23  21  92 CALM      30.22S
PARIS*         CLEAR     24  23  94 CALM      30.24S
$$

ILZ079-100>102-290400-
SOUTHWEST ILLINOIS

CITY           SKY/WX    TMP DP  RH WIND       PRES   REMARKS
CAHOKIA*       CLEAR     29  25  85 CALM      30.25R
SPARTA*        CLEAR     28  26  92 CALM      30.24S
$$

ILZ064>066-069>071-074>076-080>082-084>086-088>090-092>094-290400-
SOUTH-CENTRAL ILLINOIS

CITY           SKY/WX    TMP DP  RH WIND       PRES   REMARKS
CARBONDALE     CLOUDY    32  25  75 N3        30.24R
CAIRO*         CLOUDY    37  30  78 N7        30.23S WCI  31
EFFINGHAM*     CLEAR     26  23  89 CALM      30.26R
MARION         CLOUDY    32  28  86 E5        30.25R WCI  27
MT. VERNON     MOCLDY    28  21  74 CALM      30.24S
CENTRALIA*     CLEAR     28  26  89 CALM      30.23S
SALEM*         CLEAR     29  27  92 CALM      30.24R FOG
METROPOLIS*    CLOUDY    34  32  92 N5        30.22S WCI  30
$$

ILZ067-068-072-073-078-083-087-091-290400-
SOUTHEAST ILLINOIS

CITY           SKY/WX    TMP DP  RH WIND       PRES   REMARKS
LAWRENCEVILLE  PTCLDY    28  24  85 N6        30.24S WCI  22
FLORA*         PTCLDY    28  27  96 CALM      30.24S
FAIRFIELD*     PTCLDY    28  26  91 CALM      30.24R
HARRISBURG*    CLOUDY    33  29  84 NE5       30.25R WCI  28
ROBINSON*      CLEAR     24  23  95 CALM      30.25R
CARMI*         MOCLDY    31  29  94 N3        30.24R
$$

ABBREVIATIONS USED IN REMARKS
   TC - TEMPERATURE IN CELSIUS
  WCI - WIND CHILL INDEX
   HX - HEAT INDEX
  VSB - VISIBILITY
$$




USA.gov is the U.S. government's official web portal to all federal, state and local government web resources and services.